[[{"header":{"parameterUnit":"m.s-1","parameterCategory":1,"la1":30.2991,"la2":30.254,"lo1":-89.0895,"lo2":-89.0444,"dy":0.0017,"dx":0.0017,"nx":28,"ny":28,"refTime":"2024-08-01T09:00:00:Z","depth":0,"parameterNumber":2,"parameterNumberName":"U-component_of_WINDS"},"data":[0,0,0,0,0,0,0,0,0,0,0,0,0,0,0,0,0,0,0,0,0,0,0,0,0,0,0,0,0,0,0,0,0,0,0,0,0,0,0,0,0,0,0,0,0,0,0,0,0,0,0,0,0,0,0,0,0,0,1.1501,1.1502,0,1.1603,1.1604,1.1605,1.1633,1.1632,1.1631,1.1631,1.1735,1.1738,1.1742,0,0,0,0,0,0,0,0,0,0,0,0,0,1.133,1.1333,1.1501,1.1502,1.1504,1.1603,1.1604,1.1605,1.1633,1.1632,1.1631,1.1631,1.1734,1.1738,1.1742,0,0,0,0,0,0,0,0,0,0,0,0,0,1.1415,1.1334,1.1501,1.1529,1.1533,1.1602,1.1604,1.1606,1.1633,1.1632,1.1631,1.163,1.1733,1.1738,1.1743,1.1791,0,0,1.1758,1.176,0,0,0,0,0,0,0,0,1.141,1.1421,1.1524,1.1527,1.1532,1.1604,1.1582,1.1668,1.1633,1.1595,1.1631,1.163,1.1692,1.1701,1.1722,1.1796,1.1801,1.1758,1.1761,1.1763,1.1765,0,0,0,0,0,0,0,1.1404,1.1417,1.1541,1.1525,1.153,1.1537,1.1548,1.1598,1.1647,1.1598,1.16,1.1612,1.1694,1.1717,1.1724,1.1802,1.1758,1.1763,1.1766,1.1768,1.192,1.1921,0,0,0,0,0,0,1.1394,1.1412,1.1538,1.1544,1.1467,1.154,1.1553,1.1582,1.1647,1.1656,1.1613,1.1613,1.1709,1.1718,1.1728,1.1788,1.1763,1.1768,1.1771,1.1919,1.192,1.1921,0,0,0,0,0,0,1.139,1.1405,1.1534,1.1479,1.1496,1.1544,1.1577,1.1584,1.1607,1.1658,1.1667,1.1627,1.1708,1.1721,1.1775,1.1792,1.177,1.1775,1.1918,1.1919,1.1921,1.1909,0,0,0,0,0,0,1.1385,1.1403,1.1422,1.1479,1.1499,1.1579,1.1578,1.1587,1.1615,1.1616,1.1673,1.1682,1.1709,1.1767,1.178,1.1799,1.1779,1.1916,1.1918,1.192,1.1908,1.191,1.1912,0,0,0,0,0,1.1379,1.1416,1.1423,1.1438,1.1524,1.158,1.1592,1.1621,1.1617,1.1636,1.1669,1.168,1.1788,1.1773,1.1787,1.1807,1.1915,1.1918,1.192,1.1907,1.191,1.1912,0,0,0,0,0,0,1.136,1.1424,1.1433,1.1489,1.1529,1.1585,1.1611,1.1623,1.1666,1.1665,1.17,1.1713,1.1764,1.1791,1.1773,1.1857,1.1852,1.1857,1.1837,1.184,1.1842,1.1834,1.1783,0,0,0,0,0,1.1362,1.1403,1.1456,1.1501,1.1521,1.1562,1.1588,1.1607,1.165,1.1667,1.1704,1.1745,1.1788,1.1816,1.1858,1.1912,1.1924,1.1933,1.1935,1.1936,1.194,1.197,1.1974,1.1929,1.1929,1.1929,0,0,1.1368,1.1408,1.1431,1.1498,1.1531,1.1572,1.1576,1.162,1.165,1.1674,1.1726,1.1755,1.1803,1.1856,1.1882,1.1881,1.1955,1.1939,1.194,1.1943,1.1972,1.1976,1.198,1.1931,1.193,1.193,0,0,1.1398,1.1433,1.1473,1.1506,1.1556,1.1583,1.1593,1.1647,1.1666,1.1719,1.1738,1.1774,1.1848,1.1881,1.1908,1.1949,1.1961,1.1962,1.1971,1.1999,1.2003,1.2006,1.2019,1.2024,1.1966,1.1966,1.1966,0,1.1399,1.1461,1.1492,1.1534,1.1563,1.1586,1.1626,1.1657,1.1718,1.1737,1.1735,1.1827,1.1861,1.1922,1.1932,1.1953,1.1964,1.1956,1.2,1.2003,1.2007,1.202,1.2025,1.1966,1.1966,1.1966,1.1966,0,1.1459,1.1502,1.1528,1.1586,1.1617,1.1658,1.1695,1.1723,1.1739,1.1766,1.182,1.1861,1.1912,1.1928,1.1945,1.1991,1.1989,1.1993,1.1988,1.201,1.2023,1.2029,1.1965,1.1965,1.1966,1.1966,0,0,1.1481,1.1554,1.1563,1.1589,1.1646,1.1679,1.1721,1.177,1.1793,1.1834,1.1869,1.193,1.1934,1.1964,1.1984,1.2009,1.2037,1.201,1.2012,1.2013,1.2089,1.2085,1.2091,1.2046,1.2047,1.2048,1.2085,0,1.1517,1.1593,1.1621,1.1682,1.1721,1.1743,1.1779,1.1817,1.1843,1.188,1.1909,1.1951,1.1954,1.1971,1.1997,1.2028,1.2053,1.2026,1.2078,1.2079,1.2064,1.2098,1.2094,1.2127,1.209,1.2091,1.2092,0,1.157,1.1611,1.1676,1.1726,1.1744,1.1776,1.1822,1.1857,1.1901,1.1918,1.195,1.1969,1.2013,1.2006,1.2066,1.2047,1.2069,1.2088,1.209,1.2095,1.2086,1.2103,1.2139,1.2143,1.21,1.21,1.2099,0,1.1578,1.165,1.1697,1.1719,1.1779,1.1801,1.1827,1.1869,1.1896,1.1937,1.1955,1.2,1.2025,1.2059,1.2089,1.2081,1.2146,1.2142,1.2161,1.216,1.2173,1.2172,1.2212,1.2189,1.2189,1.2189,1.2189,0,1.1616,1.1654,1.1702,1.1731,1.1774,1.1806,1.1848,1.1876,1.1913,1.1947,1.1969,1.2001,1.2039,1.2076,1.21,1.2145,1.2156,1.2171,1.2177,1.2168,1.2166,1.2183,1.2181,1.219,1.219,1.219,1.2189,0,1.1632,1.1665,1.1718,1.177,1.1784,1.1814,1.1858,1.1887,1.1913,1.1957,1.1969,1.201,1.2054,1.2088,1.2146,1.2162,1.2209,1.2216,1.2194,1.2197,1.2214,1.2211,1.2266,1.2274,1.2246,1.2246,1.2247,0,1.1653,1.1683,1.1738,1.1762,1.1788,1.1827,1.1855,1.1887,1.1915,1.1965,1.1988,1.2033,1.2071,1.214,1.2176,1.2219,1.2227,1.2243,1.2234,1.2224,1.2226,1.2223,1.2226,1.2244,1.2244,1.2244,1.2244,0,1.1687,1.1701,1.174,1.1785,1.1817,1.1853,1.189,1.1909,1.1948,1.1978,1.2023,1.2052,1.211,1.2155,1.2202,1.2228,1.2242,1.2247,1.2253,1.2245,1.223,1.2237,1.2196,1.2245,1.2245,1.2245,1.2245,1.2245,1.1706,1.1732,1.1775,1.1817,1.1848,1.1882,1.1911,1.1941,1.1979,1.2028,1.2045,1.2091,1.2132,1.2197,1.2223,1.2259,1.226,1.227,1.2272,1.2274,1.2272,1.2225,1.2268,1.2268,1.2268,1.2268,1.2268,0,1.1739,1.1767,1.1806,1.1856,1.1889,1.1899,1.194,1.1967,1.2007,1.2044,1.2081,1.2132,1.2175,1.2213,1.2258,1.2279,1.2287,1.229,1.2288,1.2293,1.227,1.2259,1.2283,1.2283,1.2283,1.2283,1.2283,1.2283,1.1761,1.1806,1.1826,1.1887,1.1915,1.196,1.1982,1.2013,1.2042,1.2098,1.2134,1.2158,1.2196,1.2243,1.2282,1.2292,1.2307,1.2308,1.232,1.2297,1.2295,1.2294,1.2284,1.2312,1.2312,1.2341,1.2341,1.2341]},{"header":{"parameterUnit":"m.s-1","parameterCategory":1,"la1":30.2991,"la2":30.254,"lo1":-89.0895,"lo2":-89.0444,"dy":0.0017,"dx":0.0017,"nx":28,"ny":28,"refTime":"2024-08-01T09:00:00:Z","depth":0,"parameterNumber":3,"parameterNumberName":"V-component_of_WINDS"},"data":[0,0,0,0,0,0,0,0,0,0,0,0,0,0,0,0,0,0,0,0,0,0,0,0,0,0,0,0,0,0,0,0,0,0,0,0,0,0,0,0,0,0,0,0,0,0,0,0,0,0,0,0,0,0,0,0,0,0,2.9007,2.9006,0,2.8939,2.8938,2.8938,2.8854,2.8852,2.8851,2.885,2.878,2.8779,2.8779,0,0,0,0,0,0,0,0,0,0,0,0,0,2.9062,2.9062,2.9007,2.9006,2.9005,2.8939,2.8938,2.8937,2.8854,2.8852,2.8851,2.8849,2.878,2.8779,2.8779,0,0,0,0,0,0,0,0,0,0,0,0,0,2.9021,2.9062,2.9007,2.8956,2.895,2.8939,2.8938,2.8937,2.8854,2.8852,2.885,2.8848,2.878,2.8779,2.8778,2.8812,0,0,2.8776,2.8775,0,0,0,0,0,0,0,0,2.9023,2.9019,2.8964,2.8959,2.8953,2.8903,2.8932,2.8895,2.8855,2.8891,2.885,2.8847,2.8822,2.8818,2.8809,2.8809,2.8806,2.8775,2.8775,2.8775,2.8774,0,0,0,0,0,0,0,2.9026,2.9021,2.898,2.8963,2.8957,2.8935,2.8927,2.8925,2.8868,2.8887,2.8881,2.8874,2.8819,2.8811,2.8807,2.8805,2.8776,2.8775,2.8774,2.8774,2.8827,2.8829,0,0,0,0,0,0,2.9037,2.9024,2.8982,2.8978,2.8984,2.8936,2.8927,2.8921,2.8868,2.8858,2.8876,2.8871,2.8813,2.8808,2.8804,2.8839,2.8775,2.8774,2.8773,2.8825,2.8828,2.883,0,0,0,0,0,0,2.9039,2.9034,2.8985,2.8999,2.8991,2.8937,2.8931,2.8921,2.8912,2.886,2.8849,2.8878,2.8811,2.8806,2.8811,2.8836,2.8773,2.8772,2.8823,2.8826,2.8829,2.891,0,0,0,0,0,0,2.904,2.9035,2.9048,2.9,2.8991,2.8993,2.8933,2.8921,2.8911,2.8903,2.8859,2.8849,2.8809,2.8813,2.881,2.8833,2.8772,2.882,2.8824,2.8828,2.8905,2.8916,2.8925,0,0,0,0,0,2.9043,2.9074,2.9049,2.9044,2.9006,2.8995,2.8989,2.8943,2.8913,2.8925,2.8891,2.8851,2.8834,2.8814,2.881,2.8834,2.8819,2.8823,2.8827,2.8901,2.8914,2.8925,0,0,0,0,0,0,2.9126,2.9067,2.9038,2.9055,2.9031,2.8981,2.8994,2.8958,2.8941,2.8935,2.8878,2.8868,2.888,2.8857,2.8836,2.8863,2.882,2.8824,2.8877,2.8889,2.8899,2.8903,2.8771,0,0,0,0,0,2.9146,2.9142,2.9091,2.911,2.9099,2.9049,2.9043,2.9009,2.8981,2.897,2.8937,2.8911,2.8899,2.8893,2.888,2.8902,2.889,2.8916,2.8926,2.8934,2.8938,2.8946,2.8957,2.8844,2.8844,2.8844,0,0,2.9188,2.9155,2.9156,2.9126,2.9103,2.91,2.9041,2.904,2.9037,2.897,2.8972,2.8947,2.8914,2.8927,2.8931,2.8909,2.8966,2.894,2.8947,2.8946,2.8952,2.8962,2.8972,2.8847,2.8847,2.8846,0,0,2.9262,2.9238,2.9251,2.9229,2.9194,2.9161,2.9164,2.9119,2.9099,2.9101,2.905,2.9045,2.9027,2.9005,2.8992,2.9057,2.9018,2.9054,2.9105,2.9114,2.9123,2.913,2.9152,2.9161,2.9058,2.9058,2.9059,0,2.9319,2.9312,2.9262,2.9264,2.9252,2.9191,2.9203,2.9184,2.9147,2.914,2.9115,2.909,2.9064,2.907,2.9086,2.9078,2.9078,2.9059,2.9126,2.9133,2.9139,2.9159,2.9167,2.9063,2.9062,2.9062,2.9061,0,2.9382,2.9378,2.9393,2.9358,2.9348,2.9355,2.9305,2.9301,2.9268,2.9236,2.9238,2.9204,2.9182,2.9181,2.9149,2.9183,2.917,2.9136,2.9092,2.9155,2.9173,2.918,2.9069,2.9068,2.9066,2.9065,0,0,2.9507,2.9444,2.9451,2.9434,2.9391,2.9387,2.9391,2.9369,2.9365,2.9342,2.9343,2.9328,2.9297,2.9282,2.9246,2.9254,2.9306,2.9219,2.9217,2.9235,2.9339,2.9364,2.9374,2.9281,2.9282,2.9283,2.9341,0,2.9572,2.9576,2.9531,2.9546,2.9541,2.9483,2.9486,2.946,2.943,2.9421,2.9388,2.9378,2.9338,2.9328,2.9333,2.9299,2.9326,2.9294,2.928,2.928,2.9289,2.9383,2.941,2.9467,2.9348,2.9349,2.935,0,2.9649,2.963,2.9645,2.96,2.9596,2.96,2.9576,2.9569,2.9537,2.9515,2.9498,2.9457,2.9457,2.9416,2.9413,2.9393,2.9384,2.9366,2.9367,2.9363,2.9318,2.9381,2.9484,2.9492,2.9361,2.936,2.9359,0,2.9737,2.9715,2.9721,2.9708,2.9657,2.966,2.9639,2.9606,2.9595,2.9574,2.9566,2.9546,2.9534,2.9518,2.9473,2.9447,2.9476,2.9431,2.9456,2.9457,2.9464,2.9464,2.9566,2.9461,2.9461,2.946,2.946,0,2.9815,2.9826,2.9759,2.9763,2.9773,2.9721,2.9732,2.9705,2.9676,2.9672,2.962,2.9618,2.9559,2.9549,2.9514,2.9516,2.9512,2.9493,2.9483,2.9497,2.9499,2.949,2.9485,2.9463,2.9462,2.9462,2.9461,0,2.9914,2.9871,2.9873,2.9824,2.9811,2.9821,2.9779,2.9779,2.9746,2.9742,2.9738,2.9687,2.9673,2.9626,2.9601,2.9577,2.959,2.9572,2.9601,2.9594,2.9622,2.9619,2.972,2.973,2.962,2.9621,2.9622,0,2.9966,2.9973,2.9925,2.9919,2.99,2.9891,2.988,2.9828,2.9819,2.9783,2.9787,2.9769,2.9752,2.9732,2.9692,2.9672,2.9652,2.9689,2.9649,2.9662,2.9651,2.9651,2.9651,2.9698,2.9699,2.97,2.9701,0,3.0062,3.004,3.0026,3.0005,2.9993,2.9974,2.9951,2.9949,2.9891,2.9883,2.9868,2.9855,2.9828,2.981,2.9784,2.976,2.9721,2.9714,2.9719,2.9733,2.9748,2.9739,2.9623,2.9712,2.9711,2.971,2.971,2.9709,3.0139,3.0142,3.0108,3.0094,3.0071,3.0051,3.0049,3.0016,3.0003,2.9978,2.9948,2.9936,2.9903,2.9863,2.9842,2.9832,2.981,2.9817,2.9819,2.9821,2.9827,2.9751,2.9827,2.9826,2.9826,2.9826,2.9825,0,3.0231,3.0206,3.0194,3.0164,3.0153,3.0117,3.009,3.0082,3.0073,3.0046,3.003,3.0012,2.9994,2.9952,2.993,2.9929,2.9911,2.9925,2.9924,2.9919,2.9848,2.9846,2.9941,2.9941,2.9941,2.9941,2.9941,2.9941,3.0278,3.028,3.0254,3.0245,3.022,3.0208,3.0196,3.0176,3.0154,3.0137,3.0122,3.0094,3.0061,3.0035,3.0017,3.0005,2.9999,3.0019,3.0001,2.9935,2.9924,2.9914,2.9911,3.0018,3.0019,3.0073,3.0073,3.0074]}]]